Simultaneous Nadir Overpasses (SNOs) Predictions

Prediction of SNOs between METOP-B and NOAA-19 Satellite Orbit:

Table of predicted SNOs for the next 14.0 days since TLE Epoch: 2/3/2013
Index Date (METOP-B) Time (METOP-B) Lat,Lon (METOP-B) SZA (METOP-B ) Date (NOAA-19) Time (NOAA-19) Lat,Lon (NOAA-19) SZA (NOAA-19 ) Distance(km) Time Diff (sec)
1 02/03/2013 20:49:19 -73.28, 40.97 90.28 02/03/2013 20:48:05 -73.33, 40.56 90.21 13.86 74
2 02/03/2013 21:40:01 73.21,-151.86 89.65 02/03/2013 21:39:07 73.20,-151.93 89.65 2.29 54
3 02/03/2013 22:30:43 -73.17, 15.37 90.41 02/03/2013 22:30:07 -73.19, 15.36 90.38 2.60 36
4 02/03/2013 23:21:24 73.14,-177.35 89.56 02/03/2013 23:21:11 73.17,-177.36 89.59 2.65 13
5 02/04/2013 00:12:05 -73.15, -10.01 90.45 02/04/2013 00:12:11 -73.15, -10.07 90.44 2.12 6
6 02/04/2013 01:02:46 73.12, 157.27 89.53 02/04/2013 01:03:15 73.13, 157.21 89.53 2.05 29
7 02/04/2013 01:53:28 -73.08, -35.50 90.53 02/04/2013 01:54:15 -73.11, -35.51 90.51 3.61 47
8 02/04/2013 02:44:09 73.05, 131.78 89.44 02/04/2013 02:45:18 73.04, 131.88 89.41 3.79 69
9 02/04/2013 03:35:00 -72.55, -61.94 91.01 02/04/2013 03:36:09 -72.58, -59.87 91.11 68.80 69
10 02/13/2013 20:42:27 -73.26, 42.66 93.50 02/13/2013 20:41:12 -73.24, 42.53 93.49 4.62 75
11 02/13/2013 21:33:08 73.23,-150.08 86.47 02/13/2013 21:32:13 73.21,-150.15 86.46 3.25 55
12 02/13/2013 22:23:50 -73.19, 17.16 93.58 02/13/2013 22:23:16 -73.20, 17.10 93.56 2.46 34
13 02/13/2013 23:14:31 73.16,-175.57 86.38 02/13/2013 23:14:17 73.17,-175.59 86.40 1.44 14
14 02/14/2013 00:05:13 -73.12, -8.33 93.67 02/14/2013 00:05:19 -73.11, -8.23 93.68 3.24 6
15 02/14/2013 00:55:53 73.14, 159.04 86.34 02/14/2013 00:56:21 73.13, 158.97 86.34 2.46 28
16 02/14/2013 01:46:35 -73.10, -33.71 93.71 02/14/2013 01:47:23 -73.08, -33.67 93.74 3.17 48
17 02/14/2013 02:37:16 73.07, 133.55 86.26 02/14/2013 02:38:25 73.10, 133.53 86.27 3.08 69
18 02/14/2013 03:28:08 -72.48, -60.35 94.28 02/14/2013 03:29:15 -72.49, -57.94 94.41 80.85 67




NCC Satellite Simultaneous Nadir Overpasses (SN
